Weather History for Fort Rucker / Ozark, AL

Change the Weather History Date:

Tuesday, November 20, 2012

  Actual Average (KDHN) Record (KDHN)
Temperature  
Mean Temperature 58 °F 57 °F  
Max Temperature 69 °F 70 °F 83 °F (1942)
Min Temperature 48 °F 45 °F 26 °F (1951)
Degree Days  
Heating Degree Days 6 8  
Month to date heating degree days 121  
Since 1 July heating degree days 180  
Growing Degree Days 8 (Base 50)    
Moisture  
Dew Point 51 °F    
Average Humidity 79    
Maximum Humidity 96    
Minimum Humidity 54    
Precipitation  
Precipitation 0.00 in 0.15 in 1.87 in (2005)
Month to date precipitation 2.43  
Year to date precipitation 47.82  
Sea Level Pressure  
Sea Level Pressure 30.12 in    
Wind  
Wind Speed 1 mph (North)    
Max Wind Speed 9 mph    
Max Gust Speed -    
Visibility 9 miles    
Events      
T = Trace of Precipitation, MM = Missing Value Source: NWS Daily Summary

Daily Weather History Graph

Daily Weather History Graph

Search for Another Location

Airport:

Trip Planner

Search our weather history database for the weather conditions in past years. The results will help you decide how hot, cold, wet, or windy it might be!

Date:

Astronomy

Nov. 20, 2012 Rise Set
Actual Time 6:15 AM CST 4:41 PM CST
Civil Twilight 5:49 AM CST 5:07 PM CST
Nautical Twilight 5:19 AM CST 5:37 PM CST
Astronomical Twilight 4:50 AM CST 6:06 PM CST
Moon 12:02 PM CST (11/20) 11:58 PM CST (11/20)
Length of Visible Light 11h 18m
Length of Day
10h 26m
First Quarter, 51% of the Moon is Illuminated
Nov 20
First Quarter
Nov 28
Full
Dec 6
Last Quarter
Dec 13
New
Dec 19
First Quarter

Hourly Weather History & Observations

Time (CST) Temp. Dew Point Humidity Pressure Visibility Wind Dir Wind Speed Gust Speed Precip Events Conditions
12:53 AM 54.0 °F 51.1 °F 90% 30.14 in 10.0 mi Calm Calm - N/A   Overcast
1:53 AM 54.0 °F 51.1 °F 90% 30.14 in 10.0 mi Calm Calm - N/A   Overcast
2:53 AM 54.0 °F 51.1 °F 90% 30.14 in 10.0 mi Calm Calm - N/A   Overcast
3:53 AM 51.1 °F 48.9 °F 92% 30.13 in 7.0 mi Calm Calm - N/A   Clear
4:53 AM 50.0 °F 48.0 °F 93% 30.14 in 9.0 mi Calm Calm - N/A   Overcast
5:53 AM 50.0 °F 48.0 °F 93% 30.15 in 10.0 mi Calm Calm - N/A   Clear
6:53 AM 48.0 °F 46.9 °F 96% 30.16 in 5.0 mi Calm Calm - N/A   Clear
7:53 AM 57.0 °F 52.0 °F 83% 30.18 in 10.0 mi Variable 3.5 mph - N/A   Clear
8:53 AM 64.0 °F 53.1 °F 67% 30.17 in 10.0 mi NE 3.5 mph - N/A   Clear
9:53 AM 66.9 °F 53.1 °F 61% 30.17 in 10.0 mi Calm Calm - N/A   Clear
10:53 AM 69.1 °F 52.0 °F 54% 30.15 in 10.0 mi Variable 3.5 mph - N/A   Partly Cloudy
11:53 AM 66.9 °F 50.0 °F 54% 30.12 in 10.0 mi North 4.6 mph - N/A   Mostly Cloudy
12:53 PM 66.9 °F 50.0 °F 54% 30.09 in 10.0 mi NNW 9.2 mph - N/A   Scattered Clouds
1:53 PM 66.9 °F 50.0 °F 54% 30.08 in 10.0 mi NNW 5.8 mph - N/A   Mostly Cloudy
2:53 PM 66.0 °F 52.0 °F 60% 30.07 in 10.0 mi Calm Calm - N/A   Overcast
3:53 PM 63.0 °F 53.1 °F 70% 30.09 in 10.0 mi North 4.6 mph - 0.00 in   Overcast
4:53 PM 62.1 °F 54.0 °F 75% 30.09 in 10.0 mi Calm Calm - N/A   Overcast
5:53 PM 60.1 °F 54.0 °F 80% 30.10 in 10.0 mi Calm Calm - N/A   Mostly Cloudy
6:53 PM 59.0 °F 54.0 °F 83% 30.11 in 10.0 mi North 4.6 mph - N/A   Mostly Cloudy
7:53 PM 57.9 °F 52.0 °F 81% 30.11 in 10.0 mi Calm Calm - N/A   Scattered Clouds
8:53 PM 57.0 °F 53.1 °F 87% 30.11 in 10.0 mi Calm Calm - N/A   Scattered Clouds
9:53 PM 55.0 °F 52.0 °F 89% 30.12 in 10.0 mi Calm Calm - N/A   Clear
10:53 PM 52.0 °F 48.9 °F 89% 30.12 in 8.0 mi Calm Calm - N/A   Clear
11:45 PM 48.2 °F 46.4 °F 93% 30.12 in 2.0 mi Calm Calm - N/A   Clear
11:53 PM 48.9 °F 46.9 °F 93% 30.12 in 2.5 mi Calm Calm - N/A   Clear